Theta_e
323 322 322 322 321 319 319 319 316 318 322 319 312 313 316 313 311 314 314 312 316 320 324 327 328 329 329 330 333 335 338 342 343 344 346 347 348 349 349 350 351 351 352 353 353 352 352 352 352 352 352 352 353 354 355 355 356 357 356 355 356 356 356
322 323 323 322 321 321 319 316 317 321 322 321 317 314 315 313 311 314 313 311 312 312 317 327 332 330 330 330 331 333 337 341 341 342 344 345 346 348 349 350 351 351 351 351 352 352 351 351 351 352 351 351 351 353 354 355 355 356 356 355 356 356 356
320 322 323 321 321 322 320 319 322 321 316 317 319 316 314 313 312 314 313 312 312 310 314 324 330 332 332 332 333 334 335 338 340 340 342 345 345 346 348 349 350 350 349 351 352 351 350 350 351 351 351 351 351 352 353 354 355 355 355 355 356 356 356
320 321 321 318 318 319 319 320 322 321 317 317 319 317 314 313 313 313 313 312 312 314 319 322 326 333 335 334 335 336 335 337 340 340 340 342 344 345 346 346 348 349 347 349 351 350 350 349 350 351 350 350 351 351 353 354 354 355 355 356 356 356 356
318 318 319 319 320 319 318 316 316 317 317 317 318 316 314 313 313 314 314 312 311 318 327 325 325 331 335 337 338 337 336 336 337 340 341 343 344 344 345 344 345 346 346 348 349 349 350 349 349 349 349 350 350 350 352 353 354 355 355 355 356 356 356
314 317 321 323 323 323 320 317 316 316 316 315 314 315 314 312 312 313 314 312 312 320 331 329 327 329 332 338 340 337 337 336 337 340 340 344 346 343 343 343 343 344 345 346 348 349 349 349 348 348 348 349 349 349 351 352 353 354 354 355 355 355 355
316 319 322 321 321 323 323 321 321 320 319 315 312 313 314 312 312 314 313 312 315 325 337 334 331 333 332 336 340 338 337 336 337 339 338 341 346 344 342 340 339 342 344 346 347 349 350 349 348 348 347 347 349 349 350 351 352 353 353 355 356 355 355
319 319 320 320 320 321 320 321 322 320 320 318 316 318 319 314 312 313 313 313 315 327 343 339 334 336 332 333 337 337 338 338 337 339 339 342 347 347 344 341 341 341 342 346 348 350 351 350 348 349 348 348 348 348 349 350 351 352 352 354 355 355 355
318 318 319 318 317 318 318 321 322 321 322 321 319 323 323 316 312 313 313 312 314 328 343 338 332 334 332 330 333 332 336 339 337 337 341 345 349 349 347 345 346 343 342 347 351 351 351 350 350 349 348 348 347 348 349 349 350 352 352 353 355 355 355
318 319 320 317 317 320 320 321 322 321 321 320 318 319 317 316 317 316 312 312 316 328 338 335 331 333 336 337 335 331 332 336 337 339 343 347 350 350 349 349 349 348 348 349 351 352 351 349 349 349 348 348 348 348 348 348 349 351 352 353 354 354 355
322 323 324 322 321 321 320 320 322 322 322 320 319 316 315 318 320 316 316 318 318 321 331 337 337 334 336 341 339 334 337 340 341 343 343 343 345 346 347 349 351 354 356 353 351 351 350 348 348 349 349 348 348 349 348 348 349 351 352 353 354 354 355
321 320 321 321 320 321 321 321 322 322 323 323 318 315 319 325 318 312 322 330 321 319 329 338 344 344 339 340 340 339 344 345 340 340 342 341 341 343 345 347 351 356 357 356 354 352 350 348 348 348 348 349 348 348 349 349 349 351 353 353 354 354 354
317 317 318 319 320 322 322 322 322 322 324 323 319 317 323 326 318 314 329 339 326 323 327 327 337 348 341 340 344 340 337 336 335 341 347 344 338 340 345 349 351 354 355 357 357 354 350 349 349 348 348 348 348 348 350 350 349 350 352 353 353 354 355
317 316 317 320 320 321 320 321 321 321 323 323 321 322 323 323 321 320 332 339 330 326 327 324 331 344 341 340 341 334 330 334 339 345 348 343 338 340 348 352 350 349 352 354 355 356 354 351 350 349 348 348 348 349 349 350 350 350 352 351 351 354 356
317 316 317 319 319 320 319 320 321 321 322 322 321 323 322 322 323 321 327 333 331 329 331 330 334 339 337 335 336 336 339 343 344 347 346 345 346 346 346 347 345 345 349 351 353 356 356 354 351 348 348 348 348 349 349 349 350 350 351 350 351 353 355
316 316 317 318 318 319 318 318 320 321 321 321 322 323 323 322 322 322 321 323 326 330 332 331 333 333 331 332 335 338 343 343 344 348 351 355 356 350 344 343 343 344 345 347 351 352 351 352 351 348 347 348 348 349 349 349 350 350 352 352 352 353 354
317 316 316 317 318 318 317 317 320 321 321 321 321 322 324 324 323 322 320 320 326 333 332 330 331 330 330 334 337 338 343 345 346 346 347 351 352 345 342 343 342 342 341 343 347 349 349 351 351 348 347 348 349 348 348 349 349 350 351 352 352 353 355
316 315 315 317 319 319 318 319 323 326 328 328 324 321 323 323 323 323 323 324 329 333 332 331 331 330 333 338 338 336 339 345 346 344 347 350 348 344 345 345 344 343 342 342 345 349 350 349 348 348 346 346 347 347 347 348 349 349 351 351 352 354 355
315 316 317 319 320 321 319 321 329 333 334 336 333 327 325 324 323 324 324 326 329 332 333 331 330 334 343 348 345 340 340 345 348 347 352 355 353 352 354 354 352 351 348 345 345 347 347 346 347 349 348 346 347 347 347 348 348 349 351 351 352 355 356
314 316 318 320 322 320 316 323 335 336 337 340 337 330 327 328 326 325 324 325 328 332 333 330 332 341 348 352 353 351 349 351 351 351 353 354 354 355 355 355 355 355 353 350 346 345 345 345 346 348 348 348 349 349 348 348 349 350 351 352 354 355 356
314 315 316 319 319 317 318 329 338 337 337 341 340 337 336 337 336 336 334 329 325 327 328 327 333 340 342 346 351 352 352 351 350 350 351 351 351 352 352 353 354 356 356 355 350 346 346 345 346 348 349 349 350 352 352 351 351 352 354 355 356 356 356
314 314 315 317 317 317 324 335 337 335 335 337 338 339 340 341 340 340 341 340 336 333 330 329 336 341 338 336 344 351 351 350 349 349 349 348 349 350 350 351 353 355 357 354 349 347 347 347 348 348 349 350 352 354 355 354 353 354 355 356 356 356 358
314 313 313 315 317 319 329 337 336 333 334 336 337 334 335 340 339 337 339 342 344 344 340 336 340 341 333 329 340 352 351 349 348 348 349 348 348 349 350 351 352 355 357 355 351 350 353 353 351 348 348 350 353 355 356 355 355 355 355 356 357 357 358
315 315 313 314 316 319 326 334 335 333 334 337 334 328 331 338 337 335 338 342 344 347 347 342 338 336 332 333 345 352 349 348 347 346 348 347 346 348 351 351 352 354 357 357 356 356 357 355 352 351 351 352 354 357 358 356 355 356 357 357 357 356 356
314 315 315 314 315 317 323 330 334 333 334 335 333 330 334 337 335 336 339 341 343 347 348 344 340 342 347 350 352 350 347 346 345 344 345 345 345 347 348 349 351 353 354 354 354 354 355 354 353 353 354 356 356 358 358 357 356 357 356 355 354 353 355
313 315 316 315 316 322 328 331 333 332 330 331 333 334 334 334 334 336 337 338 343 347 347 346 344 347 348 348 348 348 346 345 345 343 343 344 345 346 347 348 349 351 352 353 352 352 353 354 355 354 355 357 358 358 358 359 358 358 356 355 354 354 354
314 314 315 316 320 328 333 331 332 334 332 333 335 335 334 333 333 334 334 336 341 344 346 346 344 346 348 347 346 346 344 344 343 342 342 343 344 345 346 346 348 350 351 350 350 350 351 353 355 356 357 359 359 359 360 359 357 356 356 355 354 355 355
314 314 316 320 326 331 333 331 334 337 335 333 333 333 334 333 331 331 333 335 336 340 344 346 344 346 347 345 343 344 343 343 343 343 343 343 343 344 345 346 347 349 349 348 348 348 349 350 352 356 359 360 360 359 358 356 355 357 359 357 355 355 356
318 318 320 324 327 329 330 332 335 334 331 330 330 330 332 331 329 329 331 333 334 337 341 344 344 344 343 342 342 343 343 343 343 344 344 344 344 345 345 345 346 346 347 347 346 346 347 348 348 351 354 357 356 355 354 354 356 359 360 360 359 358 357
319 320 323 325 327 328 330 331 332 330 329 328 328 329 330 329 328 328 330 331 333 334 338 342 343 342 342 342 343 343 343 343 343 344 344 343 344 345 345 345 345 345 346 346 345 345 345 345 346 347 348 350 350 350 351 353 355 358 360 362 362 360 360
317 320 325 328 330 331 331 330 329 329 329 327 327 329 329 328 327 328 330 330 331 332 335 340 342 341 341 343 343 342 342 342 342 343 343 343 344 345 345 345 345 345 346 346 345 345 345 345 345 345 345 346 346 347 349 350 352 355 359 361 362 362 361
317 318 320 322 323 325 328 330 330 329 329 329 328 329 328 328 328 329 329 330 330 331 333 335 339 340 340 341 341 341 341 341 341 342 343 343 344 345 345 345 345 345 345 345 345 345 345 344 344 344 344 345 345 345 347 348 349 352 354 356 358 360 360
315 316 317 319 321 324 327 329 329 329 330 330 329 329 328 329 329 329 329 328 329 329 330 331 334 338 339 339 340 340 341 341 342 342 343 343 344 344 344 344 344 344 344 344 344 344 344 344 344 344 344 344 343 344 345 346 347 348 349 351 353 354 355
315 316 317 321 326 328 329 329 329 329 330 330 330 330 329 329 329 329 329 329 328 328 327 328 330 332 334 337 338 339 340 341 342 342 343 343 343 344 344 343 343 344 344 343 343 343 343 343 343 344 343 343 343 343 343 344 345 346 347 348 348 348 349
316 316 317 321 325 326 326 328 329 329 330 331 330 330 330 329 329 328 328 328 329 327 326 325 326 327 329 332 336 339 339 339 339 341 342 342 343 343 344 343 344 344 344 343 344 343 343 343 343 343 343 343 343 343 342 342 343 343 344 344 344 343 344
313 314 315 318 320 321 322 324 327 328 330 331 330 329 328 327 327 327 326 327 327 327 326 325 325 326 327 329 333 335 335 335 336 338 339 340 341 342 343 343 344 344 344 344 344 344 344 344 343 344 344 343 344 344 343 342 342 342 343 342 342 341 341
314 315 315 317 319 319 320 322 325 327 329 331 330 328 326 325 324 324 325 325 325 326 327 326 326 327 328 329 330 331 331 331 333 335 336 337 339 340 341 341 342 343 343 343 343 344 344 343 343 344 344 344 344 344 343 343 342 342 342 342 342 341 340
Wind_Speed
15 18 14 13 12 7 6 8 11 8 6 8 6 2 1 1 5 4 5 7 7 4 6 8 9 9 10 12 12 13 13 11 11 10 12 15 16 17 18 19 19 19 19 19 23 26 27 29 30 32 33 36 38 35 34 37 37 35 38 41 40 38 38
13 12 14 16 14 10 7 9 10 7 6 7 7 5 3 5 7 4 6 11 10 6 5 4 9 11 11 12 13 14 13 11 11 12 12 14 16 17 18 19 18 18 18 19 24 28 29 32 33 34 38 40 40 38 36 36 37 37 40 42 41 38 38
9 8 12 12 11 9 5 6 10 8 5 8 6 5 6 7 8 4 5 9 9 10 7 2 6 11 12 12 12 13 14 12 11 12 13 15 15 15 16 17 16 17 18 20 25 29 32 34 33 34 38 37 36 37 36 36 38 41 41 38 37 36 37
9 9 10 10 10 7 2 5 9 6 4 6 7 5 4 5 7 5 4 6 7 9 9 7 9 9 10 11 10 11 13 13 11 11 12 13 13 13 15 16 17 19 21 23 28 32 33 34 33 33 35 34 34 36 35 35 35 36 36 34 34 37 39
9 9 9 11 13 10 6 7 10 7 3 3 5 5 4 5 6 5 5 6 4 3 6 11 14 12 10 10 10 10 11 13 13 11 11 11 12 14 15 15 17 19 20 23 29 32 32 31 31 31 31 32 34 34 34 36 34 33 35 35 36 39 40
7 7 10 16 17 16 14 11 10 11 8 5 6 7 6 6 6 4 5 8 5 3 4 9 12 12 11 11 11 10 11 13 13 12 10 9 10 12 14 15 16 17 18 20 24 27 27 26 27 29 30 30 32 33 34 35 34 34 36 36 36 40 40
3 5 9 13 12 12 14 12 11 13 11 9 9 8 6 7 5 2 3 8 5 3 5 7 9 10 10 9 9 9 10 11 11 11 10 8 7 9 12 13 14 14 15 16 18 20 23 25 26 28 29 29 31 34 33 33 34 36 37 36 36 41 42
1 2 5 6 4 5 10 11 11 12 12 13 12 6 4 6 7 5 5 8 4 3 3 5 5 6 7 6 6 8 9 8 8 10 9 7 6 7 9 11 11 11 11 12 14 15 19 24 25 26 28 28 30 32 32 33 36 37 38 35 34 39 41
5 6 8 7 4 4 7 8 11 13 14 17 15 5 2 6 11 12 9 8 4 2 1 2 4 4 6 6 6 7 7 7 6 6 6 6 6 5 8 10 10 11 12 13 13 13 16 21 24 27 28 28 29 30 32 34 35 36 36 33 32 36 39
10 8 7 6 3 2 3 4 9 14 17 20 15 5 4 8 9 12 12 7 1 2 1 3 4 4 6 8 7 4 5 7 6 5 5 5 5 5 8 9 9 11 12 13 14 14 15 19 23 26 28 28 29 30 32 34 34 33 34 33 32 33 36
2 2 2 2 3 2 3 4 5 8 14 19 16 8 8 6 5 9 13 8 4 3 4 2 4 5 6 8 7 5 5 6 6 5 4 4 4 5 7 7 8 9 10 13 15 14 14 18 23 25 27 28 29 30 32 33 32 30 31 32 31 31 34
3 4 6 5 4 5 6 7 8 7 8 14 17 14 8 7 6 12 11 7 8 8 4 3 4 5 6 7 7 7 4 4 5 4 3 5 6 6 6 7 9 10 10 12 14 13 13 17 21 24 25 27 30 32 32 32 31 30 30 31 32 32 34
4 6 8 6 4 6 7 8 11 11 9 11 14 15 10 10 10 13 6 8 11 11 9 9 6 4 6 7 6 5 4 4 4 3 4 6 6 6 6 7 9 10 11 11 12 12 13 16 19 22 24 27 31 31 30 30 32 31 31 34 36 33 32
5 7 8 6 3 5 8 9 12 13 13 12 11 12 13 13 14 16 9 9 12 12 12 14 10 6 5 5 4 4 5 5 4 3 4 5 6 6 7 7 8 9 11 11 11 11 11 13 17 21 24 27 30 30 29 31 32 31 32 38 40 33 33
5 6 7 6 6 7 10 11 12 12 12 13 12 11 13 13 13 16 14 9 10 8 7 9 7 3 2 4 6 6 6 4 2 2 4 6 6 7 7 6 5 7 9 10 10 11 12 14 18 21 25 28 29 28 28 30 32 32 33 38 40 38 40
5 4 5 9 12 12 12 13 13 14 13 13 11 9 10 11 11 13 14 11 8 4 4 7 6 3 5 8 8 7 5 4 3 4 6 6 7 7 5 5 5 7 9 10 12 13 14 16 18 23 25 25 26 27 29 31 32 31 32 36 40 41 40
4 5 6 9 11 10 10 9 9 12 14 14 13 11 12 13 11 11 11 9 7 4 6 9 9 8 10 10 9 8 7 6 6 7 8 7 6 6 5 5 7 8 8 9 11 13 14 16 21 26 25 23 25 31 33 33 33 31 33 37 40 39 37
4 6 7 9 8 7 5 1 1 6 10 11 14 15 15 14 13 10 9 9 9 8 8 10 12 13 11 9 8 7 6 6 7 8 8 7 6 5 6 6 7 7 8 9 10 12 15 19 22 24 25 26 29 32 30 30 32 33 34 37 38 37 37
5 5 5 7 8 5 5 3 1 4 6 6 10 14 14 15 16 15 13 12 11 9 8 11 14 13 7 3 2 3 5 5 6 7 6 5 5 5 5 5 6 6 7 9 10 11 15 18 17 19 24 27 27 26 27 29 31 32 33 34 34 31 31
4 3 5 8 3 8 15 8 3 1 2 2 5 8 9 8 9 12 14 14 13 11 10 10 10 6 1 1 0 3 4 4 5 6 5 3 3 4 4 5 6 6 7 9 10 11 12 14 16 18 22 23 20 22 26 30 31 31 31 31 29 26 26
5 5 8 8 6 12 14 5 4 2 2 3 4 3 3 3 5 6 8 10 13 13 10 8 5 2 2 4 4 5 5 5 5 5 3 2 3 4 5 6 7 8 8 9 10 10 10 13 15 17 19 19 19 20 22 26 29 29 27 25 26 27 27
6 6 8 8 8 9 5 3 2 3 3 2 1 2 3 1 5 8 8 8 11 11 7 5 4 4 4 7 6 6 8 6 4 3 1 2 2 3 5 6 7 8 7 6 7 7 9 11 14 17 18 19 20 20 19 22 24 24 23 25 26 27 26
7 8 9 8 8 5 3 5 1 4 3 3 4 3 3 1 7 10 9 9 11 10 8 4 4 6 7 8 5 7 9 6 3 2 0 1 2 3 4 5 6 8 7 2 2 3 4 6 9 16 20 21 19 18 18 20 20 21 23 24 23 23 24
8 9 8 7 7 4 1 2 1 4 1 5 5 5 2 3 9 11 10 11 11 10 9 6 7 9 8 6 3 8 10 6 4 3 1 1 2 3 4 5 6 7 7 7 8 7 5 2 3 11 17 19 17 15 15 17 18 19 19 19 20 23 26
10 10 9 8 6 4 3 3 0 2 1 5 5 5 1 4 10 10 10 13 12 10 10 8 7 5 3 2 4 10 10 7 6 3 1 1 2 3 4 6 7 8 9 10 10 9 7 4 3 7 12 13 13 12 12 14 15 15 16 21 25 28 29
8 9 8 8 6 4 5 4 1 1 3 4 3 2 2 6 9 9 10 11 11 11 11 10 7 3 3 3 5 9 9 7 6 4 2 2 2 3 4 6 7 8 10 12 13 12 11 8 5 6 9 9 8 9 10 9 9 8 12 18 22 24 26
7 7 9 8 6 2 6 6 3 4 4 2 2 2 3 4 7 9 9 8 9 10 11 9 5 1 2 2 4 6 7 6 6 4 3 3 2 4 5 6 8 10 11 12 14 13 12 12 9 6 7 8 7 8 7 5 4 5 8 13 17 19 23
6 8 7 4 4 3 3 5 4 4 2 1 1 3 2 2 4 7 7 7 8 10 10 6 3 3 3 3 4 4 5 5 5 4 4 3 4 5 5 6 9 11 11 12 13 14 14 14 13 11 9 9 9 8 6 4 2 3 5 10 15 18 20
5 7 7 6 9 10 8 6 2 5 5 3 4 3 1 3 3 5 5 7 8 9 8 4 2 3 3 4 4 4 4 5 5 5 4 4 5 6 7 8 10 11 12 13 14 14 15 15 15 14 13 12 12 10 7 4 3 3 1 4 10 14 16
7 9 9 10 10 10 11 8 2 5 6 4 4 2 1 4 4 5 5 5 6 8 7 3 3 3 4 6 6 5 4 4 4 5 5 5 6 7 7 8 10 12 13 13 14 15 14 14 14 14 14 14 13 10 7 6 6 5 4 2 2 7 10
6 5 6 7 7 8 9 8 4 3 4 5 4 3 4 6 5 5 5 4 5 6 7 3 4 4 4 7 7 6 5 4 4 5 5 6 7 7 7 8 9 11 12 11 12 14 13 13 13 13 13 14 12 10 9 9 8 6 6 6 4 1 2
5 7 11 10 9 11 12 10 6 3 5 5 5 5 8 9 7 5 5 6 6 6 6 5 5 5 4 6 8 7 6 5 5 5 6 6 7 8 8 8 9 11 11 10 11 12 12 12 13 13 14 14 12 11 11 10 9 9 8 8 7 6 4
7 11 13 9 7 10 13 13 9 6 6 6 7 8 11 13 9 6 7 8 7 7 6 5 6 6 5 5 7 7 6 6 6 6 7 7 8 10 11 11 12 13 12 12 12 12 12 12 13 13 14 14 13 13 12 11 11 11 10 10 9 8 7
8 10 8 4 3 6 9 11 10 10 8 6 8 10 12 14 9 6 7 8 8 8 8 7 7 7 6 5 5 6 6 6 6 7 8 8 9 11 13 14 15 16 16 15 15 15 14 15 15 15 15 15 15 14 13 12 12 12 11 11 10 9 9
11 12 9 5 4 6 9 10 10 11 9 5 11 12 12 13 9 6 7 8 8 8 8 8 8 8 7 7 6 7 8 7 7 8 8 8 9 12 14 15 15 17 18 18 18 18 18 19 20 19 19 18 16 15 14 13 13 13 13 12 11 10 9
16 15 13 9 6 8 13 14 13 13 7 7 13 12 12 13 9 7 8 8 8 7 6 7 9 8 7 6 6 7 8 9 9 9 10 10 11 12 15 16 17 17 18 18 18 19 19 19 21 20 20 19 18 16 14 13 12 13 14 14 13 11 9
15 14 13 11 9 11 13 14 16 16 7 10 13 10 12 13 9 8 9 9 8 8 6 6 7 8 8 6 6 7 8 9 9 10 10 11 13 14 16 17 16 16 16 16 17 17 17 18 19 18 18 18 18 17 15 14 13 14 15 15 14 12 10
Wind_Direction
180 192 184 164 171 180 168 181 203 207 169 184 227 245 153 251 259 213 188 241 262 268 270 243 220 232 231 228 228 224 228 214 190 194 200 202 205 202 201 202 201 199 196 195 198 200 200 199 200 201 200 199 201 202 200 202 204 203 204 207 207 207 208
197 189 170 175 185 160 145 195 190 134 134 200 228 237 209 223 247 235 194 232 247 245 254 213 196 214 221 223 222 223 230 219 200 202 204 204 205 200 200 202 200 196 195 197 200 202 202 201 200 200 201 202 203 203 201 201 201 202 204 206 206 206 207
178 150 170 183 183 170 170 187 163 138 176 195 187 216 230 220 236 251 208 224 240 233 228 207 199 210 216 220 218 220 227 224 215 210 208 207 202 199 200 202 201 197 198 199 199 202 204 203 201 200 201 201 201 203 203 203 203 204 205 203 202 204 206
154 154 187 191 183 191 193 151 163 174 211 189 176 197 216 209 227 250 229 223 237 226 214 222 235 231 228 227 221 221 225 224 222 215 209 204 196 198 201 202 202 200 202 203 201 203 204 203 202 201 201 200 200 202 202 203 204 203 202 200 199 203 206
160 173 194 195 189 190 187 181 186 186 179 180 189 198 206 215 224 232 244 250 242 186 186 210 222 227 233 231 226 227 228 228 230 224 213 200 192 198 200 200 202 200 202 204 203 205 204 203 202 201 200 200 200 201 200 201 201 199 199 200 200 204 205
187 183 189 201 201 194 194 197 194 189 185 177 189 206 206 211 227 217 240 265 258 143 165 206 213 218 224 223 221 225 229 231 232 231 226 208 195 202 201 200 203 202 202 203 203 202 199 200 201 200 201 201 199 200 201 200 200 200 202 201 201 204 204
198 184 197 214 218 208 206 206 197 194 193 185 198 215 191 188 220 213 240 272 272 142 167 199 208 217 224 224 221 225 232 235 237 241 239 225 210 210 206 204 206 205 201 199 200 196 192 197 199 198 200 200 199 200 200 198 199 201 203 201 201 203 203
289 231 227 238 254 234 222 216 204 201 198 197 209 220 168 182 202 186 220 253 244 134 173 211 215 224 234 237 227 229 238 242 243 247 248 236 221 210 206 205 203 202 196 191 196 196 196 201 200 195 195 197 198 200 199 198 200 202 202 200 199 200 202
208 221 224 220 202 202 226 225 214 209 203 205 212 200 130 213 206 195 217 240 217 106 44 244 245 251 255 254 235 229 244 251 245 248 254 246 230 201 199 201 195 194 192 191 198 201 200 201 198 197 196 195 196 198 198 201 203 202 200 198 197 198 200
205 207 213 218 205 196 241 245 223 215 208 209 212 189 188 217 200 196 219 234 174 96 122 224 242 251 260 260 251 234 249 262 258 246 244 244 234 208 204 203 195 195 196 198 202 202 200 199 196 197 199 197 197 197 198 202 204 202 199 198 196 195 196
208 228 250 288 328 291 263 283 267 238 220 214 212 208 211 198 166 210 226 229 231 193 158 186 228 232 248 260 264 257 245 250 254 250 250 256 253 232 214 204 199 199 201 204 205 203 200 198 195 195 196 196 196 196 197 201 202 198 195 194 192 192 195
11 320 301 297 297 272 264 281 285 277 250 226 219 219 205 145 178 232 223 202 232 230 203 225 229 226 248 257 262 265 258 247 247 246 249 248 247 239 215 205 205 203 205 207 207 204 199 196 196 196 196 196 196 197 198 198 197 195 192 190 191 193 195
335 305 296 290 274 259 259 267 269 273 275 255 238 233 212 170 206 242 209 165 222 234 228 240 238 228 248 253 261 274 284 272 244 224 237 246 248 247 230 220 213 208 211 209 207 206 199 195 195 195 197 199 199 200 198 195 197 196 193 192 195 196 194
316 305 299 297 289 273 270 268 265 266 269 265 259 252 240 222 229 245 226 186 218 230 226 232 229 221 246 267 291 279 257 251 231 206 239 251 252 252 242 233 222 216 218 215 210 208 199 197 198 196 198 199 199 200 197 195 197 196 193 196 199 197 199
301 305 307 303 306 301 287 274 262 259 260 259 254 249 249 243 239 245 242 224 222 224 229 238 228 191 225 251 258 255 246 251 249 226 248 254 256 259 260 262 251 232 228 222 213 207 202 202 201 199 200 200 199 199 197 195 197 196 194 197 199 200 206
285 303 320 317 319 310 284 267 258 251 248 250 248 239 240 239 235 242 245 243 242 222 227 251 244 215 233 239 244 250 248 249 249 244 248 248 250 255 265 277 269 247 238 227 216 212 209 204 201 202 202 198 196 198 196 195 196 193 192 195 199 203 207
286 303 317 323 322 302 270 257 254 250 248 250 251 244 239 236 233 237 238 244 259 237 220 241 243 231 235 239 239 241 239 235 233 238 245 245 246 253 258 262 258 251 246 234 224 220 213 205 203 203 200 196 197 200 199 197 195 192 193 197 200 203 203
281 300 316 314 289 257 253 263 251 264 262 257 253 247 241 235 233 244 256 255 255 238 219 228 236 234 236 239 238 231 228 233 233 233 237 240 246 254 253 256 258 253 250 245 237 229 222 216 210 202 199 200 203 203 201 197 195 196 199 201 202 203 202
276 298 305 273 242 245 306 351 80 270 264 257 264 259 248 239 232 237 246 246 247 245 225 222 234 240 243 255 250 219 213 229 238 239 240 238 245 253 253 260 266 260 258 254 247 240 231 222 209 197 198 201 200 199 197 195 195 199 201 202 205 204 201
256 262 239 235 251 326 315 318 56 11 267 322 299 261 242 248 248 242 239 235 238 241 228 224 237 244 193 71 226 218 222 229 237 247 252 247 259 272 276 279 278 274 271 263 255 247 231 215 203 197 198 197 190 188 192 193 195 198 199 201 203 202 199
225 236 246 253 304 314 298 297 55 18 295 346 333 262 252 324 341 312 277 252 246 244 232 224 227 194 187 236 227 207 215 227 234 248 269 289 292 298 304 302 295 287 280 268 259 248 220 202 200 195 191 187 183 181 185 190 194 195 196 199 200 199 198
211 232 253 259 269 271 245 151 74 319 289 270 227 234 257 349 23 360 332 297 279 274 264 234 194 164 217 248 233 190 191 203 212 225 258 297 307 322 324 317 313 311 301 272 247 228 202 194 195 192 187 183 181 180 181 187 190 192 197 201 200 198 196
214 219 235 240 243 241 149 130 201 319 312 191 192 237 240 47 10 349 331 316 305 301 301 274 190 180 220 246 231 171 166 170 171 174 187 3 6 3 352 342 340 342 344 0 126 142 160 175 188 191 187 183 181 182 182 184 187 193 201 203 199 195 194
228 224 236 240 238 246 123 135 271 331 348 167 204 255 238 28 348 332 325 319 309 304 307 283 217 210 230 250 200 138 138 138 133 133 108 36 33 23 17 12 11 14 22 48 68 64 55 59 181 186 183 180 181 182 179 182 191 199 203 200 196 197 199
229 228 239 248 244 235 211 195 234 10 151 184 226 253 245 336 327 329 330 320 309 303 299 272 234 237 289 2 97 119 125 129 128 129 129 74 45 25 24 26 39 54 55 58 64 57 43 44 133 170 176 179 180 176 173 185 197 202 203 203 204 205 205
225 229 239 254 261 225 170 167 139 144 204 229 253 270 286 305 320 335 331 317 315 311 294 270 256 289 15 51 96 113 120 127 131 134 133 113 78 52 47 41 57 77 71 64 63 54 43 44 74 143 165 167 164 165 169 182 196 202 203 206 207 207 206
220 233 233 239 262 218 148 157 178 194 215 263 345 312 296 318 334 335 327 317 322 320 301 277 256 223 96 96 103 112 121 128 128 130 133 129 96 69 63 54 65 79 75 66 59 52 46 43 47 86 133 135 132 141 141 140 165 191 204 207 207 207 208
214 223 218 227 309 322 199 205 206 182 176 113 146 256 286 26 359 335 327 321 325 328 314 287 220 159 134 118 108 116 128 128 127 129 129 124 104 81 70 66 71 76 76 70 61 53 51 50 48 56 79 96 100 100 88 79 123 166 198 208 206 207 210
250 254 260 293 317 315 293 273 213 144 151 163 179 217 271 51 21 346 326 318 330 336 322 293 171 140 127 123 119 124 128 123 124 126 115 99 94 83 76 78 80 81 80 76 68 58 51 51 53 55 61 75 79 72 60 53 68 81 115 206 208 209 212
306 291 269 264 276 288 290 286 245 145 153 164 170 177 100 61 30 355 327 325 345 344 325 304 139 130 124 120 114 109 113 112 109 109 98 86 82 76 75 80 85 88 88 83 78 71 59 52 54 54 55 62 63 56 48 47 50 56 61 76 192 216 220
307 294 265 256 266 276 275 268 248 176 165 160 156 144 96 67 35 2 350 358 14 6 348 7 102 118 120 119 113 102 94 90 91 94 89 83 79 72 71 78 84 89 90 84 80 79 71 63 62 60 59 59 57 52 46 41 42 48 55 61 67 79 237
262 270 279 292 302 293 277 261 249 212 175 154 130 110 88 68 41 14 18 25 35 36 14 17 66 89 100 111 113 107 97 88 85 86 84 82 80 77 74 75 80 83 81 79 78 75 71 69 68 67 66 63 61 59 56 51 51 53 53 56 61 59 54
279 274 276 283 290 281 267 253 247 233 195 154 117 95 80 66 41 16 32 35 33 36 20 10 45 63 61 78 98 104 99 89 83 82 83 81 79 79 78 77 79 83 83 84 82 78 74 74 72 69 68 66 62 59 58 58 60 61 61 63 63 61 59
269 259 258 256 259 270 261 241 228 226 215 155 99 79 73 68 47 18 38 46 37 32 20 8 31 46 30 25 57 79 79 74 75 80 84 85 83 83 86 87 87 88 89 88 85 81 77 74 72 70 68 66 61 56 56 60 64 67 72 73 68 64 60
257 258 266 275 283 296 287 263 235 229 226 129 87 76 75 74 56 28 41 50 44 35 19 9 24 34 17 10 37 63 64 58 55 56 60 70 78 80 82 84 82 80 79 77 74 71 68 66 65 64 62 60 56 52 53 59 66 73 79 80 75 70 65
262 267 271 274 275 276 280 277 265 252 235 113 94 88 85 81 65 45 47 47 46 45 24 10 22 26 17 15 32 53 58 55 52 50 47 49 57 64 66 66 66 64 63 63 62 62 61 60 59 58 56 53 49 46 46 50 58 68 73 75 74 71 68
257 263 265 268 266 262 271 281 273 259 233 107 99 95 88 85 75 62 58 50 46 49 34 15 19 25 25 25 31 46 55 51 48 54 56 53 54 56 56 56 57 58 57 57 58 60 59 58 57 55 53 49 46 44 43 45 51 58 61 64 65 62 60